Location: Wilhelmshaven
(53.5279°N, 8.1063°E)
Time: 04:08:37
(UTC+02:00)

ISS - Pass Details

Date: 09 July 2022
Orbit: 412 x 420 km, 51.6° (Epoch: 10 August)

Event Time Altitude Azimuth Distance (km) Brightness Sun altitude
Exits shadow 01:59:13 22° 222° (SW) 985 -2.4 -13.9°
Drops below altitude 10° 02:04:20 10° 89° (E) 1,544 -0.8 -13.8°
Enters shadow 03:08:41 -53° 267° (W) 10,716 3.3 -11.3°
Maximum altitude 03:37:55 65° 182° (S) 485 -3.7 -9.4°
